ROMMA est une association bénévole à but non lucratif. Votre soutien est indispensable : ADHERER à ROMMA ou FAIRE un DON

Voiron - (38, Isère)

Voironnais (300 m)   Longitude: 05° 35' E   Latitude: 45° 23' N Station partenaire n°109
 

Détail journalier du     <<     >>

Température Precipitation Humidité Pression Vent Dir Rafale Dir. rafale Ensol.
Heure (°C) (mm) (%) (hPa) (km/h) (km/h) (min)
01:00 11.908910221ONO5NO0
02:00 11.3090102205ONO0
03:00 10.7091102205ONO0
04:00 10.3092102203ONO0
05:00 10.709210212SSO6SSO0
06:00 10.1093102105NO0
07:00 9.709310211E6NNO0
08:00 9.609310211NNO5NNO0
09:00 10.2092102103NNO0
10:00 13.7083102105S60
11:00 16.107410212S10SSE60
12:00 16.007910214SSE11S30
13:00 18.207510212SSE11SE60
14:00 19.707210203SSE19SO0
15:00 20.207210207SSO18O30
16:00 20.507410206SSE15S0
17:00 20.907210204S16SSO0
18:00 20.107610207S21S30
19:00 18.907910204S15S0
20:00 18.308210202ENE11O0
21:00 17.508410211SSE6SE0
22:00 16.408810211SSE5SSO0
23:00 16.608710212S6S0
minuit 15.9089102106S0

Graphique du 12-10-2019

 

Serveur OMMA